Location: Arrodets-la-Barthe
(43.0306°N, 0.2829°E)
Time: 18:41:08
(UTC+00:00)

SL-08 RB Rocket - Pass Details

Date: 24 October 2021
Orbit: 646 x 683 km, 97.8° (Epoch: 01 December)

Event Time Altitude Azimuth Distance (km) Brightness Sun altitude
Rises 18:11:07 0° 151° (SSE) 2,982 6.8 -13.3°
Reaches altitude 10° 18:13:22 10° 146° (SE) 2,080 6.0 -13.7°
Maximum altitude 18:17:44 48° 72° (ENE) 873 3.9 -14.5°
Drops below altitude 10° 18:22:11 10° 358° (N) 2,117 6.3 -15.3°
Sets 18:24:30 0° 353° (N) 3,041 7.2 -15.7°
